• In Netherlands
  • List of Countries
  • For 7 days
  • Water Temperature
  • Satellite Maps
  • Weather Map
  • Weather Widgets
  • user-avatar
    Login

    Hourly Weather Gabrovo

    Today, 21 June, Thursday

    Time Temperature Precipitation Wind Pressure Humidity
    00:00 +19°C° 0 mm 1 mps 704 mmHg 66%
    01:00 +18°C° 0 mm 1 mps 704 mmHg 68%
    02:00 +18°C° 0 mm 1 mps 704 mmHg 73%
    03:00 +18°C° 0 mm 1 mps 703 mmHg 73%
    04:00 +16°C° 0 mm 1 mps 703 mmHg 73%
    05:00 +16°C° 0 mm 1 mps 703 mmHg 73%
    06:00 +19°C° 0 mm 1 mps 704 mmHg 67%
    07:00 +21°C° 0 mm 1 mps 704 mmHg 61%
    08:00 +23°C° 0 mm 1 mps 704 mmHg 54%
    09:00 +25°C° 0 mm 1 mps 704 mmHg 49%
    10:00 +26°C° 0 mm 2 mps 704 mmHg 43%
    11:00 +27°C° 0 mm 2 mps 704 mmHg 37%
    12:00 +28°C° 0 mm 2 mps 704 mmHg 35%
    13:00 +28°C° 0 mm 2 mps 703 mmHg 33%
    14:00 +29°C° 0 mm 2 mps 703 mmHg 32%
    15:00 +29°C° 0 mm 2 mps 703 mmHg 33%
    16:00 +29°C° 0 mm 2 mps 702 mmHg 34%
    17:00 +29°C° 0 mm 1 mps 702 mmHg 35%
    18:00 +26°C° 0 mm 1 mps 701 mmHg 39%
    19:00 +24°C° 0 mm 1 mps 701 mmHg 43%
    20:00 +22°C° 0 mm 1 mps 701 mmHg 47%
    21:00 +21°C° 0 mm 1 mps 701 mmHg 50%
    22:00 +20°C° 0 mm 1 mps 701 mmHg 52%
    23:00 +18°C° 0 mm 2 mps 700 mmHg 55%

    Tomorrow, 22 June, Friday

    Time Temperature Precipitation Wind Pressure Humidity
    00:00 +19°C° 0 mm 1 mps 700 mmHg 57%
    01:00 +18°C° 0 mm 1 mps 700 mmHg 58%
    02:00 +18°C° 0 mm 1 mps 700 mmHg 60%
    03:00 +18°C° 0 mm 1 mps 700 mmHg 61%
    04:00 +16°C° 0 mm 1 mps 699 mmHg 61%
    05:00 +16°C° 0 mm 1 mps 699 mmHg 62%
    06:00 +19°C° 0 mm 1 mps 699 mmHg 57%
    07:00 +21°C° 0 mm 1 mps 700 mmHg 52%
    08:00 +24°C° 0 mm 1 mps 700 mmHg 47%
    09:00 +25°C° 0 mm 1 mps 700 mmHg 43%
    10:00 +27°C° 0 mm 1 mps 700 mmHg 39%
    11:00 +28°C° 0 mm 1 mps 700 mmHg 35%
    12:00 +29°C° 0 mm 1 mps 700 mmHg 34%
    13:00 +29°C° 0 mm 1 mps 700 mmHg 33%
    14:00 +30°C° 0 mm 1 mps 700 mmHg 31%
    15:00 +30°C° 0.1 mm 2 mps 699 mmHg 35%
    16:00 +29°C° 0.1 mm 2 mps 699 mmHg 38%
    17:00 +29°C° 0.1 mm 2 mps 699 mmHg 41%
    18:00 +26°C° 0.8 mm 3 mps 699 mmHg 52%
    19:00 +22°C° 0.8 mm 3 mps 699 mmHg 62%
    20:00 +20°C° 0.8 mm 4 mps 699 mmHg 72%
    21:00 +19°C° 0.3 mm 4 mps 699 mmHg 76%
    22:00 +18°C° 0.3 mm 3 mps 699 mmHg 80%
    23:00 +17°C° 0.3 mm 3 mps 699 mmHg 83%

    Day after tomorrow, 23 June, Saturday

    Time Temperature Precipitation Wind Pressure Humidity
    00:00 +16°C° 0 mm 3 mps 699 mmHg 84%
    01:00 +14°C° 0 mm 3 mps 699 mmHg 84%
    02:00 +14°C° 0 mm 3 mps 699 mmHg 85%
    03:00 +13°C° 0 mm 3 mps 699 mmHg 84%
    04:00 +12°C° 0 mm 3 mps 700 mmHg 83%
    05:00 +12°C° 0 mm 3 mps 700 mmHg 82%
    06:00 +13°C° 0 mm 4 mps 700 mmHg 74%
    07:00 +14°C° 0 mm 4 mps 701 mmHg 66%
    08:00 +15°C° 0 mm 5 mps 701 mmHg 58%
    09:00 +16°C° 0 mm 5 mps 702 mmHg 54%
    10:00 +17°C° 0 mm 5 mps 702 mmHg 49%
    11:00 +19°C° 0 mm 5 mps 702 mmHg 45%
    12:00 +20°C° 0 mm 5 mps 702 mmHg 43%
    13:00 +20°C° 0 mm 4 mps 702 mmHg 42%
    14:00 +21°C° 0 mm 4 mps 702 mmHg 41%
    15:00 +21°C° 0 mm 4 mps 702 mmHg 42%
    16:00 +21°C° 0 mm 4 mps 702 mmHg 42%
    17:00 +21°C° 0 mm 3 mps 702 mmHg 43%
    18:00 +19°C° 0 mm 3 mps 702 mmHg 48%
    19:00 +17°C° 0 mm 2 mps 702 mmHg 53%
    20:00 +15°C° 0 mm 2 mps 702 mmHg 58%
    21:00 +14°C° 0 mm 2 mps 702 mmHg 59%
    22:00 +14°C° 0 mm 2 mps 702 mmHg 60%
    23:00 +13°C° 0 mm 2 mps 702 mmHg 61%

    24 June, Sunday

    Time Temperature Precipitation Wind Pressure Humidity
    00:00 +12°C° 0 mm 2 mps 702 mmHg 62%
    01:00 +12°C° 0 mm 1 mps 702 mmHg 63%
    02:00 +11°C° 0 mm 1 mps 702 mmHg 64%
    03:00 +11°C° 0 mm 1 mps 702 mmHg 65%
    04:00 +11°C° 0 mm 1 mps 702 mmHg 66%
    05:00 +11°C° 0 mm 1 mps 702 mmHg 66%
    06:00 +13°C° 0 mm 1 mps 703 mmHg 61%
    07:00 +15°C° 0 mm 1 mps 703 mmHg 57%
    08:00 +18°C° 0 mm 1 mps 704 mmHg 52%
    09:00 +19°C° 0 mm 1 mps 704 mmHg 49%
    10:00 +20°C° 0 mm 1 mps 704 mmHg 46%
    11:00 +21°C° 0 mm 2 mps 704 mmHg 42%
    12:00 +21°C° 0 mm 2 mps 704 mmHg 42%
    13:00 +23°C° 0 mm 1 mps 703 mmHg 41%
    14:00 +23°C° 0 mm 1 mps 703 mmHg 41%
    15:00 +23°C° 0 mm 1 mps 703 mmHg 41%
    16:00 +23°C° 0 mm 1 mps 703 mmHg 41%
    17:00 +23°C° 0 mm 1 mps 703 mmHg 41%
    18:00 +21°C° 0 mm 2 mps 703 mmHg 47%
    19:00 +19°C° 0 mm 2 mps 703 mmHg 53%
    20:00 +17°C° 0 mm 2 mps 702 mmHg 59%
    21:00 +16°C° 0 mm 2 mps 703 mmHg 63%
    22:00 +16°C° 0 mm 2 mps 703 mmHg 67%
    23:00 +15°C° 0 mm 2 mps 703 mmHg 71%

    25 June, Monday

    Time Temperature Precipitation Wind Pressure Humidity
    00:00 +14°C° 0 mm 2 mps 703 mmHg 72%
    01:00 +14°C° 0 mm 1 mps 703 mmHg 74%
    02:00 +13°C° 0 mm 1 mps 702 mmHg 76%
    03:00 +13°C° 0 mm 1 mps 702 mmHg 76%
    04:00 +13°C° 0 mm 1 mps 702 mmHg 76%
    05:00 +12°C° 0 mm 1 mps 702 mmHg 76%
    06:00 +14°C° 0 mm 1 mps 703 mmHg 69%
    07:00 +16°C° 0 mm 1 mps 703 mmHg 63%
    08:00 +19°C° 0 mm 1 mps 703 mmHg 56%
    09:00 +21°C° 0 mm 1 mps 703 mmHg 51%
    10:00 +21°C° 0 mm 2 mps 703 mmHg 46%
    11:00 +22°C° 0 mm 3 mps 703 mmHg 42%
    12:00 +24°C° 0 mm 3 mps 703 mmHg 41%
    13:00 +25°C° 0 mm 3 mps 703 mmHg 39%
    14:00 +25°C° 0 mm 4 mps 703 mmHg 38%
    15:00 +25°C° 0 mm 4 mps 702 mmHg 40%
    16:00 +25°C° 0 mm 4 mps 702 mmHg 41%
    17:00 +25°C° 0 mm 4 mps 702 mmHg 42%
    18:00 +22°C° 0 mm 3 mps 702 mmHg 47%
    19:00 +20°C° 0 mm 3 mps 702 mmHg 53%
    20:00 +18°C° 0 mm 3 mps 701 mmHg 59%
    21:00 +17°C° 0 mm 2 mps 701 mmHg 64%
    22:00 +16°C° 0 mm 2 mps 701 mmHg 70%
    23:00 +15°C° 0 mm 2 mps 701 mmHg 76%

    26 June, Tuesday

    Time Temperature Precipitation Wind Pressure Humidity
    00:00 +15°C° 0 mm 1 mps 701 mmHg 79%
    01:00 +14°C° 0 mm 1 mps 701 mmHg 83%
    02:00 +14°C° 0 mm 1 mps 700 mmHg 86%
    03:00 +14°C° 0 mm 1 mps 700 mmHg 87%
    04:00 +14°C° 0 mm 1 mps 700 mmHg 87%
    05:00 +13°C° 0 mm 1 mps 700 mmHg 87%
    06:00 +15°C° 0.1 mm 1 mps 700 mmHg 82%
    07:00 +16°C° 0.1 mm 2 mps 700 mmHg 77%
    08:00 +18°C° 0.1 mm 2 mps 700 mmHg 71%
    09:00 +19°C° 0.1 mm 2 mps 700 mmHg 70%
    10:00 +19°C° 0.1 mm 2 mps 700 mmHg 68%
    11:00 +20°C° 0.1 mm 3 mps 700 mmHg 66%
    12:00 +20°C° 1.7 mm 3 mps 699 mmHg 70%
    13:00 +20°C° 1.7 mm 2 mps 699 mmHg 75%
    14:00 +19°C° 1.7 mm 2 mps 698 mmHg 79%
    15:00 +19°C° 3.1 mm 2 mps 698 mmHg 82%
    16:00 +18°C° 3.1 mm 2 mps 698 mmHg 85%
    17:00 +18°C° 3.1 mm 2 mps 697 mmHg 89%
    18:00 +17°C° 4.2 mm 2 mps 697 mmHg 90%
    19:00 +17°C° 4.2 mm 2 mps 697 mmHg 91%
    20:00 +17°C° 4.2 mm 2 mps 697 mmHg 93%
    21:00 +17°C° 1.3 mm 2 mps 697 mmHg 93%
    22:00 +16°C° 1.3 mm 2 mps 697 mmHg 93%
    23:00 +16°C° 1.3 mm 1 mps 697 mmHg 93%
    Show more